sat.trackr.live / text

‹ back to catalog

STARLINK-3207

NORAD 49756 · 2021-115AJ

PAYLOAD ACTIVE UNKNOWN

§ Identity

Operator
Country
US
Launch date
2021-12-02
Launch site
AFETR
Launch vehicle
Mass (kg)
RCS (m²)

Purposes: comms

External: N2YO · Heavens-Above · Gunter

§ Orbital elements

Epoch: 2026-09-19T19:26:59.024832Z

Period
93.85 min
Inclination
53.1603°
Eccentricity
0.0001224
Mean motion
15.34409452 rev/d
Perigee alt
461.8 km
Apogee alt
463.5 km
Semi-major
6,840.8 km
B*
4.0053e-5
RAAN
332.7169°
Arg perigee
83.4461°
Mean anomaly
276.6681°
Rev number
26,518

§ Raw data

STARLINK-32071 49756U 21115AJ  26262.81040538  .00000978  00000+0  40053-4 0  99972 49756  53.1603 332.7169 0001224  83.4461 276.6681 15.34409452265182

JSON: /api/v1/satellites/49756 · /tle

For live sub-satellite position, see the globe view (requires WebGL).

§ Visibility from observer

Set your observer location to see the next 7 days of passes ≥ 10°. The values pass through the URL so the page stays shareable.

No JS? Fill the form by hand. The geolocation button needs JavaScript.